Location: Rio Tanui
(39.9167°N, 8.5167°E)
Time: 01:55:37
(UTC+00:00)

SJ 16-02 - Pass Details

Date: 08 February 2023
Orbit: 601 x 611 km, 75.0° (Epoch: 01 April)

Event Time Altitude Azimuth Distance (km) Brightness Sun altitude
Rises 18:48:35 0° 180° (S) 2,853 4.8 -22.5°
Reaches altitude 10° 18:50:53 10° 174° (S) 1,951 3.8 -23.0°
Enters shadow 18:51:13 12° 172° (S) 1,825 3.7 -23.0°
